^^
Station Historical Data
Daily Summary for March 22, 2021 Units:  English    Metric   Both
Daily Weekly Monthly Yearly
  High: Low: Average:
Temperature: 57.7 °F 40.6 °F 48.9 °F
Dew Point: 43.1 °F 31.4 °F 37.7 °F
Humidity: 78% 49% 66%
Wind Speed: 8mph 0mph 3.2mph
Wind Gust: 9mph - -
Wind- - SW
Pressure: 30.21 in 30.01 in -
Precipitation: 0.00 in    
 
 
Tabular Data for March 22, 2021
Time Temperature Dew Point Pressure Wind Wind Speed Wind Gust Humidity Rainfall Rate (Hourly) solar
00:00 45.2 °F 34.9 °F 30.21 in NNE 3 mph 3 mph 67% 0.00 in 0 W/m2
00:05 45.1 °F 35.2 °F 30.21 in NNE 3 mph 3 mph 68% 0.00 in 0 W/m2
00:10 45 °F 34.7 °F 30.21 in NNW 3 mph 4 mph 67% 0.00 in 0 W/m2
00:15 44.7 °F 34.4 °F 30.21 in North 3 mph 4 mph 67% 0.00 in 0 W/m2
00:20 44.8 °F 34.1 °F 30.21 in ENE 3 mph 3 mph 66% 0.00 in 0 W/m2
00:25 44.9 °F 34.2 °F 30.21 in NW 3 mph 3 mph 66% 0.00 in 0 W/m2
00:30 44.9 °F 33.8 °F 30.21 in NNE 3 mph 3 mph 65% 0.00 in 0 W/m2
00:35 44.9 °F 34.2 °F 30.21 in North 3 mph 3 mph 66% 0.00 in 0 W/m2
00:40 44.7 °F 34 °F 30.21 in North 3 mph 3 mph 66% 0.00 in 0 W/m2
00:45 44.6 °F 33.9 °F 30.21 in WNW 3 mph 3 mph 66% 0.00 in 0 W/m2
00:50 44.6 °F 33.6 °F 30.21 in NW 3 mph 3 mph 65% 0.00 in 0 W/m2
00:55 44.5 °F 33.8 °F 30.21 in North 3 mph 3 mph 66% 0.00 in 0 W/m2
01:00 44.3 °F 33.7 °F 30.21 in ENE 3 mph 3 mph 66% 0.00 in 0 W/m2
01:05 44.3 °F 33.7 °F 30.21 in NW 3 mph 3 mph 66% 0.00 in 0 W/m2
01:10 44.2 °F 33.6 °F 30.21 in ENE 3 mph 3 mph 66% 0.00 in 0 W/m2
01:15 44.3 °F 33.7 °F 30.21 in NNE 3 mph 3 mph 66% 0.00 in 0 W/m2
01:20 44.2 °F 33.6 °F 30.21 in NNW 3 mph 3 mph 66% 0.00 in 0 W/m2
01:25 44.1 °F 33.8 °F 30.20 in North 3 mph 3 mph 67% 0.00 in 0 W/m2
01:30 44 °F 33.7 °F 30.20 in North 2 mph 3 mph 67% 0.00 in 0 W/m2
01:35 44.1 °F 33.5 °F 30.20 in NW 2 mph 4 mph 66% 0.00 in 0 W/m2
01:40 43.8 °F 33.6 °F 30.20 in NNE 2 mph 3 mph 67% 0.00 in 0 W/m2
01:45 43.8 °F 33.6 °F 30.20 in East 2 mph 3 mph 67% 0.00 in 0 W/m2
01:50 43.6 °F 33.4 °F 30.20 in NNW 2 mph 2 mph 67% 0.00 in 0 W/m2
01:55 43.8 °F 33.6 °F 30.20 in West 2 mph 2 mph 67% 0.00 in 0 W/m2
02:00 43.9 °F 33.3 °F 30.20 in NE 2 mph 2 mph 66% 0.00 in 0 W/m2
02:05 43.6 °F 33.4 °F 30.20 in NNW 2 mph 2 mph 67% 0.00 in 0 W/m2
02:10 43.4 °F 33.2 °F 30.20 in SSE 2 mph 3 mph 67% 0.00 in 0 W/m2
02:15 43.4 °F 33.5 °F 30.20 in North 2 mph 3 mph 68% 0.00 in 0 W/m2
02:20 43.5 °F 33.3 °F 30.20 in WNW 2 mph 2 mph 67% 0.00 in 0 W/m2
02:25 43.4 °F 33.2 °F 30.20 in West 2 mph 2 mph 67% 0.00 in 0 W/m2
02:30 43.2 °F 33.7 °F 30.19 in WNW 2 mph 2 mph 69% 0.00 in 0 W/m2
02:35 43 °F 33.9 °F 30.19 in NNW 2 mph 2 mph 70% 0.00 in 0 W/m2
02:40 42.9 °F 33.8 °F 30.19 in NNE 2 mph 2 mph 70% 0.00 in 0 W/m2
02:45 42.9 °F 33.4 °F 30.19 in NW 2 mph 2 mph 69% 0.00 in 0 W/m2
02:50 42.9 °F 34.1 °F 30.19 in NNW 2 mph 2 mph 71% 0.00 in 0 W/m2
02:55 42.8 °F 33.7 °F 30.19 in NW 2 mph 2 mph 70% 0.00 in 0 W/m2
03:00 42.8 °F 34 °F 30.18 in North 2 mph 3 mph 71% 0.00 in 0 W/m2
03:05 42.8 °F 34 °F 30.18 in NW 2 mph 3 mph 71% 0.00 in 0 W/m2
03:10 42.8 °F 33.7 °F 30.18 in West 2 mph 2 mph 70% 0.00 in 0 W/m2
03:15 42.7 °F 33.9 °F 30.18 in NNW 2 mph 2 mph 71% 0.00 in 0 W/m2
03:20 42.7 °F 33.9 °F 30.18 in NW 2 mph 3 mph 71% 0.00 in 0 W/m2
03:25 42.6 °F 33.5 °F 30.18 in North 2 mph 3 mph 70% 0.00 in 0 W/m2
03:30 42.5 °F 33.8 °F 30.18 in North 2 mph 3 mph 71% 0.00 in 0 W/m2
03:35 42.4 °F 34 °F 30.18 in WNW 2 mph 3 mph 72% 0.00 in 0 W/m2
03:40 42.3 °F 33.6 °F 30.18 in NW 2 mph 3 mph 71% 0.00 in 0 W/m2
03:45 42.4 °F 33.7 °F 30.18 in NW 2 mph 3 mph 71% 0.00 in 0 W/m2
03:50 42.4 °F 33.3 °F 30.18 in West 2 mph 2 mph 70% 0.00 in 0 W/m2
03:55 42.1 °F 33.4 °F 30.18 in NW 2 mph 3 mph 71% 0.00 in 0 W/m2
04:00 42 °F 32.9 °F 30.17 in NW 2 mph 2 mph 70% 0.00 in 0 W/m2
04:05 41.9 °F 32.8 °F 30.17 in NNE 2 mph 3 mph 70% 0.00 in 0 W/m2
04:10 41.8 °F 33.1 °F 30.17 in West 2 mph 4 mph 71% 0.00 in 0 W/m2
04:15 41.9 °F 33.2 °F 30.17 in NW 2 mph 4 mph 71% 0.00 in 0 W/m2
04:20 42 °F 32.6 °F 30.17 in NNE 2 mph 2 mph 69% 0.00 in 0 W/m2
04:25 42 °F 32.9 °F 30.17 in WNW 2 mph 3 mph 70% 0.00 in 0 W/m2
04:30 41.9 °F 32.8 °F 30.16 in NW 2 mph 2 mph 70% 0.00 in 0 W/m2
04:35 41.9 °F 33.2 °F 30.16 in WNW 2 mph 2 mph 71% 0.00 in 0 W/m2
04:40 41.9 °F 32.8 °F 30.16 in NNW 2 mph 2 mph 70% 0.00 in 0 W/m2
04:45 41.9 °F 32.8 °F 30.16 in NNE 2 mph 3 mph 70% 0.00 in 0 W/m2
04:50 41.8 °F 33.1 °F 30.16 in ESE 3 mph 3 mph 71% 0.00 in 0 W/m2
04:55 41.5 °F 32.8 °F 30.16 in North 2 mph 3 mph 71% 0.00 in 0 W/m2
05:00 41.3 °F 33 °F 30.16 in WNW 3 mph 3 mph 72% 0.00 in 0 W/m2
05:05 41.3 °F 32.6 °F 30.15 in NNW 3 mph 3 mph 71% 0.00 in 0 W/m2
05:10 41.2 °F 32.9 °F 30.15 in NNW 2 mph 2 mph 72% 0.00 in 0 W/m2
05:15 41.3 °F 32.6 °F 30.16 in NNW 3 mph 3 mph 71% 0.00 in 0 W/m2
05:20 41.4 °F 32 °F 30.15 in NW 3 mph 3 mph 69% 0.00 in 0 W/m2
05:25 41.5 °F 31.7 °F 30.16 in North 3 mph 3 mph 68% 0.00 in 0 W/m2
05:30 41.5 °F 31.4 °F 30.16 in NW 3 mph 4 mph 67% 0.00 in 0 W/m2
05:35 41.5 °F 31.4 °F 30.15 in North 3 mph 4 mph 67% 0.00 in 0 W/m2
05:40 41.5 °F 31.7 °F 30.15 in NNW 3 mph 4 mph 68% 0.00 in 0 W/m2
05:45 41.5 °F 31.7 °F 30.15 in NE 3 mph 4 mph 68% 0.00 in 0 W/m2
05:50 41.4 °F 31.6 °F 30.15 in ENE 3 mph 4 mph 68% 0.00 in 0 W/m2
05:55 41.4 °F 31.6 °F 30.15 in NNE 3 mph 4 mph 68% 0.00 in 0 W/m2
06:00 41.3 °F 31.5 °F 30.15 in SE 3 mph 3 mph 68% 0.00 in 0 W/m2
06:05 41.1 °F 31.7 °F 30.15 in NW 3 mph 3 mph 69% 0.00 in 0 W/m2
06:10 41 °F 31.6 °F 30.15 in WNW 3 mph 3 mph 69% 0.00 in 0 W/m2
06:15 40.9 °F 31.9 °F 30.15 in ENE 3 mph 4 mph 70% 0.00 in 0 W/m2
06:20 40.8 °F 31.8 °F 30.15 in North 3 mph 4 mph 70% 0.00 in 0 W/m2
06:25 40.7 °F 31.7 °F 30.15 in North 3 mph 4 mph 70% 0.00 in 0 W/m2
06:30 40.7 °F 31.7 °F 30.15 in WSW 3 mph 3 mph 70% 0.00 in 0 W/m2
06:35 40.8 °F 31.8 °F 30.15 in North 3 mph 3 mph 70% 0.00 in 0 W/m2
06:40 40.8 °F 31.8 °F 30.15 in NNE 3 mph 3 mph 70% 0.00 in 0 W/m2
06:45 40.8 °F 32.1 °F 30.15 in NE 3 mph 3 mph 71% 0.00 in 0 W/m2
06:50 40.9 °F 32.6 °F 30.14 in NNW 3 mph 5 mph 72% 0.00 in 0 W/m2
06:55 40.8 °F 31.8 °F 30.15 in NW 3 mph 5 mph 70% 0.00 in 0 W/m2
07:00 40.8 °F 32.1 °F 30.15 in East 3 mph 3 mph 71% 0.00 in 0 W/m2
07:05 40.8 °F 32.1 °F 30.15 in North 3 mph 3 mph 71% 0.00 in 0 W/m2
07:10 40.7 °F 32.4 °F 30.15 in NW 3 mph 5 mph 72% 0.00 in 0 W/m2
07:15 40.7 °F 32.4 °F 30.14 in NNW 3 mph 5 mph 72% 0.00 in 0 W/m2
07:20 40.7 °F 32 °F 30.15 in NW 3 mph 3 mph 71% 0.00 in 0 W/m2
07:25 40.7 °F 32.4 °F 30.14 in NNE 3 mph 3 mph 72% 0.00 in 0 W/m2
07:30 40.7 °F 32.7 °F 30.14 in NNW 3 mph 3 mph 73% 0.00 in 0 W/m2
07:35 40.6 °F 32.3 °F 30.15 in NNE 3 mph 3 mph 72% 0.00 in 5 W/m2
07:40 40.6 °F 32.6 °F 30.15 in North 3 mph 3 mph 73% 0.00 in 9 W/m2
07:45 40.6 °F 32.3 °F 30.15 in NW 3 mph 3 mph 72% 0.00 in 12 W/m2
07:50 40.7 °F 32.4 °F 30.15 in NE 3 mph 3 mph 72% 0.00 in 14 W/m2
07:55 40.7 °F 32.4 °F 30.15 in NW 2 mph 4 mph 72% 0.00 in 19 W/m2
08:00 40.7 °F 32.7 °F 30.15 in NNW 2 mph 3 mph 73% 0.00 in 23 W/m2
08:05 40.8 °F 32.8 °F 30.15 in WNW 3 mph 3 mph 73% 0.00 in 28 W/m2
08:10 40.8 °F 32.8 °F 30.15 in West 2 mph 2 mph 73% 0.00 in 39 W/m2
08:15 40.8 °F 33.2 °F 30.14 in ENE 2 mph 2 mph 74% 0.00 in 46 W/m2
08:20 40.8 °F 33.5 °F 30.14 in NNW 2 mph 2 mph 75% 0.00 in 74 W/m2
08:25 40.8 °F 33.5 °F 30.14 in SE 2 mph 2 mph 75% 0.00 in 91 W/m2
08:30 40.9 °F 33.9 °F 30.14 in NNW 2 mph 2 mph 76% 0.00 in 121 W/m2
08:35 41 °F 34.3 °F 30.14 in NNW 2 mph 2 mph 77% 0.00 in 134 W/m2
08:40 41.1 °F 34.4 °F 30.14 in NW 2 mph 2 mph 77% 0.00 in 148 W/m2
08:45 41.3 °F 34.6 °F 30.14 in NE 2 mph 2 mph 77% 0.00 in 162 W/m2
08:50 41.5 °F 34.8 °F 30.14 in West 1 mph 1 mph 77% 0.00 in 169 W/m2
08:55 42.5 °F 36.1 °F 30.14 in NW 2 mph 2 mph 78% 0.00 in 193 W/m2
09:00 42.4 °F 36 °F 30.14 in NNW 2 mph 3 mph 78% 0.00 in 211 W/m2
09:05 44.3 °F 36.2 °F 30.14 in NE 2 mph 3 mph 73% 0.00 in 227 W/m2
09:10 45.1 °F 35.9 °F 30.14 in NNW 3 mph 3 mph 70% 0.00 in 241 W/m2
09:15 45.4 °F 36.5 °F 30.14 in NNE 3 mph 3 mph 71% 0.00 in 253 W/m2
09:20 45.4 °F 36.5 °F 30.13 in WNW 3 mph 3 mph 71% 0.00 in 241 W/m2
09:25 45.7 °F 36.5 °F 30.13 in NNE 3 mph 3 mph 70% 0.00 in 276 W/m2
09:30 45.8 °F 36.6 °F 30.13 in North 3 mph 3 mph 70% 0.00 in 220 W/m2
09:35 46.7 °F 36.7 °F 30.13 in North 3 mph 4 mph 68% 0.00 in 251 W/m2
09:40 47.1 °F 37.4 °F 30.13 in NNE 3 mph 3 mph 69% 0.00 in 323 W/m2
09:45 47.5 °F 37.8 °F 30.13 in NE 3 mph 3 mph 69% 0.00 in 241 W/m2
09:50 48.1 °F 38 °F 30.13 in NNE 4 mph 4 mph 68% 0.00 in 146 W/m2
09:55 48.5 °F 37.7 °F 30.13 in SSE 4 mph 7 mph 66% 0.00 in 234 W/m2
10:00 49 °F 38.1 °F 30.13 in South 4 mph 4 mph 66% 0.00 in 276 W/m2
10:05 49.3 °F 38 °F 30.13 in WNW 4 mph 4 mph 65% 0.00 in 378 W/m2
10:10 49.4 °F 38.5 °F 30.13 in NNE 4 mph 4 mph 66% 0.00 in 341 W/m2
10:15 49.5 °F 39 °F 30.13 in NNE 4 mph 4 mph 67% 0.00 in 417 W/m2
10:20 49.7 °F 39.2 °F 30.12 in WSW 4 mph 7 mph 67% 0.00 in 376 W/m2
10:25 49.9 °F 39 °F 30.12 in WSW 4 mph 7 mph 66% 0.00 in 450 W/m2
10:30 50.2 °F 39.7 °F 30.12 in NNE 3 mph 3 mph 67% 0.00 in 445 W/m2
10:35 50 °F 39.5 °F 30.12 in SW 3 mph 4 mph 67% 0.00 in 434 W/m2
10:40 50.3 °F 39.8 °F 30.12 in NNW 3 mph 3 mph 67% 0.00 in 490 W/m2
10:45 50.4 °F 39.9 °F 30.12 in SSW 3 mph 3 mph 67% 0.00 in 499 W/m2
10:50 50.6 °F 40 °F 30.12 in West 3 mph 3 mph 67% 0.00 in 439 W/m2
10:55 50.5 °F 40.3 °F 30.12 in SSW 3 mph 3 mph 68% 0.00 in 436 W/m2
11:00 50.6 °F 40.8 °F 30.11 in WNW 3 mph 3 mph 69% 0.00 in 501 W/m2
11:05 49.9 °F 39.8 °F 30.11 in South 4 mph 4 mph 68% 0.00 in 552 W/m2
11:10 50.1 °F 40.3 °F 30.11 in SSW 4 mph 4 mph 69% 0.00 in 570 W/m2
11:15 50.3 °F 40.1 °F 30.11 in South 4 mph 4 mph 68% 0.00 in 573 W/m2
11:20 51.3 °F 41.1 °F 30.11 in North 4 mph 4 mph 68% 0.00 in 575 W/m2
11:25 51.4 °F 40.4 °F 30.11 in South 4 mph 6 mph 66% 0.00 in 606 W/m2
11:30 52.5 °F 41.5 °F 30.11 in SW 4 mph 4 mph 66% 0.00 in 629 W/m2
11:35 52.5 °F 41.5 °F 30.11 in SSE 3 mph 4 mph 66% 0.00 in 608 W/m2
11:40 52.7 °F 41.7 °F 30.11 in SSW 3 mph 3 mph 66% 0.00 in 656 W/m2
11:45 53.1 °F 40.8 °F 30.11 in SSE 3 mph 7 mph 63% 0.00 in 682 W/m2
11:50 53.4 °F 41.9 °F 30.11 in SSW 4 mph 4 mph 65% 0.00 in 643 W/m2
11:55 53.4 °F 40.7 °F 30.10 in SSW 4 mph 4 mph 62% 0.00 in 543 W/m2
12:00 53.5 °F 40.4 °F 30.10 in South 5 mph 5 mph 61% 0.00 in 650 W/m2
12:05 53.4 °F 40.7 °F 30.10 in South 6 mph 8 mph 62% 0.00 in 568 W/m2
12:10 53.7 °F 40.6 °F 30.10 in SSW 6 mph 7 mph 61% 0.00 in 608 W/m2
12:15 53.6 °F 40.9 °F 30.10 in SSW 7 mph 7 mph 62% 0.00 in 642 W/m2
12:20 53.8 °F 41.1 °F 30.10 in SW 6 mph 6 mph 62% 0.00 in 656 W/m2
12:25 54.2 °F 40.6 °F 30.10 in SSW 6 mph 7 mph 60% 0.00 in 636 W/m2
12:30 54 °F 40.8 °F 30.10 in SSW 7 mph 7 mph 61% 0.00 in 603 W/m2
12:35 54.3 °F 41.6 °F 30.10 in SSW 7 mph 7 mph 62% 0.00 in 687 W/m2
12:40 54.2 °F 41.5 °F 30.09 in SSW 6 mph 7 mph 62% 0.00 in 754 W/m2
12:45 54.5 °F 41.7 °F 30.09 in SSW 5 mph 7 mph 62% 0.00 in 772 W/m2
12:50 54.3 °F 41.6 °F 30.09 in SSW 6 mph 7 mph 62% 0.00 in 663 W/m2
12:55 54.4 °F 42.1 °F 30.09 in SSW 7 mph 9 mph 63% 0.00 in 744 W/m2
13:00 54.7 °F 41.9 °F 30.09 in SSW 7 mph 7 mph 62% 0.00 in 737 W/m2
13:05 55 °F 41.8 °F 30.08 in SSW 7 mph 9 mph 61% 0.00 in 756 W/m2
13:10 55.5 °F 41.4 °F 30.08 in SSW 8 mph 9 mph 59% 0.00 in 738 W/m2
13:15 55.7 °F 42 °F 30.08 in SW 8 mph 9 mph 60% 0.00 in 729 W/m2
13:20 55.8 °F 42.1 °F 30.08 in SSW 8 mph 8 mph 60% 0.00 in 714 W/m2
13:25 56 °F 42.7 °F 30.08 in SW 8 mph 8 mph 61% 0.00 in 754 W/m2
13:30 55.7 °F 42.5 °F 30.08 in SW 7 mph 7 mph 61% 0.00 in 679 W/m2
13:35 55.1 °F 41.9 °F 30.08 in SW 7 mph 7 mph 61% 0.00 in 701 W/m2
13:40 55.1 °F 41.5 °F 30.07 in SW 7 mph 7 mph 60% 0.00 in 689 W/m2
13:45 55.5 °F 41.4 °F 30.07 in North 8 mph 8 mph 59% 0.00 in 708 W/m2
13:50 56 °F 42.3 °F 30.07 in SSW 8 mph 8 mph 60% 0.00 in 742 W/m2
13:55 55.7 °F 42.9 °F 30.07 in SW 7 mph 8 mph 62% 0.00 in 735 W/m2
14:00 55.8 °F 42.5 °F 30.07 in SSW 7 mph 7 mph 61% 0.00 in 707 W/m2
14:05 55.8 °F 42.1 °F 30.07 in SW 6 mph 7 mph 60% 0.00 in 759 W/m2
14:10 55.9 °F 41.8 °F 30.07 in SW 6 mph 8 mph 59% 0.00 in 726 W/m2
14:15 56.6 °F 42.9 °F 30.06 in SSW 6 mph 8 mph 60% 0.00 in 717 W/m2
14:20 56.4 °F 42.7 °F 30.06 in SSW 6 mph 7 mph 60% 0.00 in 700 W/m2
14:25 55.5 °F 43.1 °F 30.06 in SW 6 mph 7 mph 63% 0.00 in 691 W/m2
14:30 55.8 °F 41.7 °F 30.06 in SW 6 mph 6 mph 59% 0.00 in 635 W/m2
14:35 55.7 °F 42 °F 30.05 in West 5 mph 6 mph 60% 0.00 in 666 W/m2
14:40 55.5 °F 41.8 °F 30.05 in SW 4 mph 4 mph 60% 0.00 in 661 W/m2
14:45 55.3 °F 42.1 °F 30.05 in West 5 mph 7 mph 61% 0.00 in 612 W/m2
14:50 55.7 °F 42 °F 30.05 in SSW 5 mph 5 mph 60% 0.00 in 578 W/m2
14:55 55.6 °F 41 °F 30.05 in SW 5 mph 5 mph 58% 0.00 in 591 W/m2
15:00 55.2 °F 42.4 °F 30.05 in SW 5 mph 5 mph 62% 0.00 in 599 W/m2
15:05 56 °F 41.4 °F 30.04 in SSW 5 mph 5 mph 58% 0.00 in 557 W/m2
15:10 55.5 °F 42.3 °F 30.04 in SW 4 mph 6 mph 61% 0.00 in 510 W/m2
15:15 55.3 °F 42.5 °F 30.04 in SW 5 mph 6 mph 62% 0.00 in 612 W/m2
15:20 56.1 °F 41.5 °F 30.04 in WSW 5 mph 5 mph 58% 0.00 in 529 W/m2
15:25 56.4 °F 41.3 °F 30.04 in WSW 4 mph 5 mph 57% 0.00 in 540 W/m2
15:30 55.7 °F 40.7 °F 30.04 in West 4 mph 7 mph 57% 0.00 in 526 W/m2
15:35 55.6 °F 39.7 °F 30.04 in WSW 5 mph 9 mph 55% 0.00 in 529 W/m2
15:40 55.9 °F 39.5 °F 30.04 in West 6 mph 6 mph 54% 0.00 in 584 W/m2
15:45 56.9 °F 38.9 °F 30.04 in SW 7 mph 7 mph 51% 0.00 in 464 W/m2
15:50 56.6 °F 39.2 °F 30.03 in SW 7 mph 8 mph 52% 0.00 in 517 W/m2
15:55 57.1 °F 38.6 °F 30.03 in WSW 7 mph 8 mph 50% 0.00 in 526 W/m2
16:00 57.3 °F 38.8 °F 30.03 in SSW 6 mph 6 mph 50% 0.00 in 443 W/m2
16:05 56.3 °F 39.4 °F 30.03 in SW 6 mph 6 mph 53% 0.00 in 390 W/m2
16:10 55.8 °F 39.9 °F 30.03 in WSW 5 mph 5 mph 55% 0.00 in 427 W/m2
16:15 56.3 °F 38.9 °F 30.03 in WSW 5 mph 5 mph 52% 0.00 in 353 W/m2
16:20 56 °F 39.6 °F 30.03 in WSW 4 mph 4 mph 54% 0.00 in 251 W/m2
16:25 56.2 °F 38.8 °F 30.03 in SW 4 mph 5 mph 52% 0.00 in 483 W/m2
16:30 57 °F 39.5 °F 30.03 in WSW 5 mph 5 mph 52% 0.00 in 531 W/m2
16:35 56.2 °F 39.3 °F 30.03 in WSW 4 mph 5 mph 53% 0.00 in 540 W/m2
16:40 56 °F 39.6 °F 30.02 in WSW 4 mph 9 mph 54% 0.00 in 492 W/m2
16:45 57.4 °F 39.4 °F 30.02 in WSW 5 mph 9 mph 51% 0.00 in 504 W/m2
16:50 57.7 °F 39.7 °F 30.02 in SW 5 mph 5 mph 51% 0.00 in 499 W/m2
16:55 57.5 °F 39 °F 30.02 in WSW 4 mph 5 mph 50% 0.00 in 485 W/m2
17:00 57 °F 39 °F 30.02 in SW 5 mph 7 mph 51% 0.00 in 471 W/m2
17:05 56.5 °F 39.1 °F 30.02 in WSW 5 mph 7 mph 52% 0.00 in 445 W/m2
17:10 56.6 °F 39.2 °F 30.01 in SW 5 mph 5 mph 52% 0.00 in 436 W/m2
17:15 56.1 °F 39.7 °F 30.01 in SW 5 mph 5 mph 54% 0.00 in 431 W/m2
17:20 56.5 °F 39.6 °F 30.01 in SW 4 mph 4 mph 53% 0.00 in 415 W/m2
17:25 55.3 °F 39.4 °F 30.01 in WSW 4 mph 7 mph 55% 0.00 in 394 W/m2
17:30 56.1 °F 39.2 °F 30.01 in SW 4 mph 5 mph 53% 0.00 in 367 W/m2
17:35 55.8 °F 39.4 °F 30.01 in SSW 5 mph 5 mph 54% 0.00 in 371 W/m2
17:40 56.3 °F 39.9 °F 30.01 in West 5 mph 6 mph 54% 0.00 in 357 W/m2
17:45 56.1 °F 38.7 °F 30.01 in WSW 5 mph 6 mph 52% 0.00 in 345 W/m2
17:50 56.4 °F 39.5 °F 30.01 in West 4 mph 4 mph 53% 0.00 in 329 W/m2
17:55 55.9 °F 39.5 °F 30.01 in SW 4 mph 5 mph 54% 0.00 in 311 W/m2
18:00 56.2 °F 39.3 °F 30.01 in SW 5 mph 6 mph 53% 0.00 in 294 W/m2
18:05 56.4 °F 39 °F 30.01 in WSW 5 mph 8 mph 52% 0.00 in 288 W/m2
18:10 56.7 °F 39.3 °F 30.01 in WSW 5 mph 5 mph 52% 0.00 in 276 W/m2
18:15 57.4 °F 38.9 °F 30.01 in WNW 5 mph 5 mph 50% 0.00 in 258 W/m2
18:20 57.5 °F 38.5 °F 30.01 in West 5 mph 9 mph 49% 0.00 in 241 W/m2
18:25 56.9 °F 39.4 °F 30.01 in SW 5 mph 9 mph 52% 0.00 in 197 W/m2
18:30 56.2 °F 39.3 °F 30.01 in SSW 5 mph 5 mph 53% 0.00 in 109 W/m2
18:35 56 °F 39.6 °F 30.01 in SW 4 mph 5 mph 54% 0.00 in 165 W/m2
18:40 55.8 °F 39.9 °F 30.01 in SW 4 mph 5 mph 55% 0.00 in 130 W/m2
18:45 55.7 °F 39.3 °F 30.01 in WSW 4 mph 5 mph 54% 0.00 in 116 W/m2
18:50 55.6 °F 39.7 °F 30.02 in West 4 mph 4 mph 55% 0.00 in 79 W/m2
18:55 55.6 °F 39.7 °F 30.02 in South 4 mph 4 mph 55% 0.00 in 83 W/m2
19:00 55.5 °F 40 °F 30.02 in SW 4 mph 4 mph 56% 0.00 in 65 W/m2
19:05 55.5 °F 40 °F 30.02 in SW 4 mph 4 mph 56% 0.00 in 54 W/m2
19:10 55.2 °F 41.1 °F 30.02 in WSW 4 mph 7 mph 59% 0.00 in 58 W/m2
19:15 54.9 °F 40.4 °F 30.02 in WSW 4 mph 7 mph 58% 0.00 in 35 W/m2
19:20 54.8 °F 39.8 °F 30.02 in SW 5 mph 5 mph 57% 0.00 in 26 W/m2
19:25 54.8 °F 40.3 °F 30.02 in WSW 5 mph 5 mph 58% 0.00 in 19 W/m2
19:30 54.5 °F 40.5 °F 30.02 in SW 4 mph 6 mph 59% 0.00 in 16 W/m2
19:35 54.2 °F 40.2 °F 30.02 in SW 4 mph 6 mph 59% 0.00 in 12 W/m2
19:40 53.5 °F 41.6 °F 30.03 in SSW 3 mph 3 mph 64% 0.00 in 9 W/m2
19:45 52.6 °F 41.6 °F 30.02 in SSW 1 mph 3 mph 66% 0.00 in 5 W/m2
19:50 51.9 °F 40.5 °F 30.02 in SSW 1 mph 4 mph 65% 0.00 in 0 W/m2
19:55 51.7 °F 40.3 °F 30.03 in SW 2 mph 4 mph 65% 0.00 in 0 W/m2
20:00 51.6 °F 40.2 °F 30.03 in SW 2 mph 2 mph 65% 0.00 in 0 W/m2
20:05 51.6 °F 40.2 °F 30.03 in SW 1 mph 2 mph 65% 0.00 in 0 W/m2
20:10 51.5 °F 40.5 °F 30.03 in South 2 mph 2 mph 66% 0.00 in 0 W/m2
20:15 51 °F 40.4 °F 30.03 in SSW 2 mph 2 mph 67% 0.00 in 0 W/m2
20:20 50.7 °F 40.1 °F 30.03 in SSW 1 mph 2 mph 67% 0.00 in 0 W/m2
20:25 50.5 °F 40.3 °F 30.03 in SSW 2 mph 2 mph 68% 0.00 in 0 W/m2
20:30 50.4 °F 39.9 °F 30.03 in SSW 2 mph 2 mph 67% 0.00 in 0 W/m2
20:35 50.5 °F 39.9 °F 30.03 in SSW 2 mph 2 mph 67% 0.00 in 0 W/m2
20:40 50.4 °F 39.9 °F 30.03 in SSW 1 mph 1 mph 67% 0.00 in 0 W/m2
20:45 50.5 °F 40.7 °F 30.03 in SSW 1 mph 1 mph 69% 0.00 in 0 W/m2
20:50 50.5 °F 41.1 °F 30.03 in SSW 1 mph 1 mph 70% 0.00 in 0 W/m2
20:55 50.5 °F 41.1 °F 30.03 in Calm   1 mph 70% 0.00 in 0 W/m2
21:00 50.6 °F 41.2 °F 30.03 in Calm     70% 0.00 in 0 W/m2
21:05 50.5 °F 41.1 °F 30.03 in Calm     70% 0.00 in 0 W/m2
21:10 50.5 °F 41.1 °F 30.03 in Calm     70% 0.00 in 0 W/m2
21:15 50.5 °F 41.1 °F 30.03 in Calm     70% 0.00 in 0 W/m2
21:20 50.4 °F 41 °F 30.03 in Calm     70% 0.00 in 0 W/m2
21:25 50.4 °F 41 °F 30.03 in Calm     70% 0.00 in 0 W/m2
21:30 50.4 °F 41 °F 30.03 in Calm   1 mph 70% 0.00 in 0 W/m2
21:35 50.4 °F 41 °F 30.03 in SW 1 mph 1 mph 70% 0.00 in 0 W/m2
21:40 50.5 °F 40.7 °F 30.03 in SW 1 mph 1 mph 69% 0.00 in 0 W/m2
21:45 50.6 °F 41.2 °F 30.03 in SW 1 mph 1 mph 70% 0.00 in 0 W/m2
21:50 50.5 °F 41.8 °F 30.03 in SSW 1 mph 1 mph 72% 0.00 in 0 W/m2
21:55 50.5 °F 42.2 °F 30.03 in Calm   1 mph 73% 0.00 in 0 W/m2
22:00 50.2 °F 42.2 °F 30.04 in Calm     74% 0.00 in 0 W/m2
22:05 50.1 °F 42.1 °F 30.04 in Calm     74% 0.00 in 0 W/m2
22:10 50.1 °F 42.1 °F 30.04 in Calm     74% 0.00 in 0 W/m2
22:15 50 °F 41.7 °F 30.04 in Calm     73% 0.00 in 0 W/m2
22:20 49.9 °F 41.6 °F 30.04 in Calm     73% 0.00 in 0 W/m2
22:25 49.8 °F 41.5 °F 30.04 in Calm     73% 0.00 in 0 W/m2
22:30 49.8 °F 41.5 °F 30.05 in Calm     73% 0.00 in 0 W/m2
22:35 49.7 °F 41.4 °F 30.05 in Calm     73% 0.00 in 0 W/m2
22:40 49.6 °F 40.9 °F 30.05 in Calm     72% 0.00 in 0 W/m2
22:45 49.5 °F 40.5 °F 30.05 in Calm     71% 0.00 in 0 W/m2
22:50 49.3 °F 40.3 °F 30.05 in Calm     71% 0.00 in 0 W/m2
22:55 49.3 °F 40.3 °F 30.05 in Calm     71% 0.00 in 0 W/m2
23:00 49.2 °F 40.2 °F 30.05 in Calm     71% 0.00 in 0 W/m2
23:05 49.3 °F 40.3 °F 30.05 in Calm   1 mph 71% 0.00 in 0 W/m2
23:10 49.5 °F 40.8 °F 30.05 in Calm   1 mph 72% 0.00 in 0 W/m2
23:15 49.5 °F 41.6 °F 30.05 in SSW 1 mph 1 mph 74% 0.00 in 0 W/m2
23:20 49.5 °F 41.9 °F 30.05 in SSW 1 mph 1 mph 75% 0.00 in 0 W/m2
23:25 49.6 °F 42.7 °F 30.05 in SSW 1 mph 1 mph 77% 0.00 in 0 W/m2
23:30 49.6 °F 43 °F 30.06 in SSW 1 mph 1 mph 78% 0.00 in 0 W/m2
23:35 49.5 °F 42.9 °F 30.06 in SSW 1 mph 1 mph 78% 0.00 in 0 W/m2
23:40 49.4 °F 42.1 °F 30.06 in SSW 1 mph 1 mph 76% 0.00 in 0 W/m2
23:45 49.2 °F 42 °F 30.06 in SSW 1 mph 1 mph 76% 0.00 in 0 W/m2
23:50 49 °F 41.8 °F 30.06 in SSW 1 mph 2 mph 76% 0.00 in 0 W/m2
23:55 48.9 °F 42 °F 30.06 in SSW 1 mph 2 mph 77% 0.00 in 0 W/m2
Sand Point, Michigan, USA
Compliments of Weather Underground - 2 mb